Skip Page Navigation
NASA JPL Caltech
NASA Logo - Jet Propulsion Laboratory + View the NASA Portal
+ Center for Near-Earth Object Studies
JPL Home Earth Solar System Stars & Galaxies Technology
JPL Solar System Dynamics
BODIES ORBITS EPHEMERIDES TOOLS PHYSICAL DATA DISCOVERY FAQ SITE MAP
JPL Small-Body Database Browser
Search: [ help ]  
190799 (2001 RE67)
Classification: Main-belt Asteroid          SPK-ID: 2190799
Ephemeris | Orbit Diagram | Orbital Elements | Mission Design | Physical Parameters | Discovery Circumstances ]

[ show orbit diagram ]
Orbital Elements at Epoch 2459200.5 (2020-Dec-17.0) TDB
Reference: JPL 22 (heliocentric ecliptic J2000)
 Element Value Uncertainty (1-sigma)   Units 
e .1716335106939558 4.1372e-08  
a 2.322313413016386 1.0747e-08 au
q 1.923726609008721 9.641e-08 au
i 4.537612350800098 3.7576e-06 deg
node 241.6179411094205 5.5954e-05 deg
peri 74.08826856483853 5.728e-05 deg
M 194.8560844686218 1.3789e-05 deg
tp 2459793.479595289927
(2022-Aug-01.97959529)
5.193e-05 TDB
period 1292.646196606697
3.54
8.9733e-06
2.457e-08
d
yr
n .278498479278421 1.9333e-09 deg/d
Q 2.720900217024051 1.2592e-08 au
  Orbit Determination Parameters
   # obs. used (total)      587  
   data-arc span      7164 days (19.61 yr)  
   first obs. used      2001-08-28  
   last obs. used      2021-04-09  
   planetary ephem.      DE441  
   SB-pert. ephem.      SB441-N16  
   condition code      0  
   norm. resid. RMS      .52355  
   source      ORB  
   producer      Otto Matic  
   solution date      2021-May-04 10:18:17  

Additional Information
 Earth MOID = .914134 au 
 Jupiter MOID = 2.56332 au 
 T_jup = 3.553 
[ show covariance matrix ]

Ephemeris | Orbit Diagram | Orbital Elements | Mission Design | Physical Parameters | Discovery Circumstances ]

Physical Parameter Table
Parameter Symbol Value Units Sigma Reference Notes
absolute magnitude H 16.36   n/a E2021B55  

190799 (2001 RE67)          Discovered 2001-Sep-10 by LINEAR at Socorro
Reference: 20080917/Numbers.arcLast Updated: 2008-09-19
Ephemeris | Orbit Diagram | Orbital Elements | Mission Design | Physical Parameters | Discovery Circumstances ]
ABOUT SSD CREDITS/AWARDS PRIVACY/COPYRIGHT GLOSSARY LINKS
FirstGov 2021-May-15 03:21 UT
(server date/time)  
NASA Home Page
Site Manager:   Ryan S. Park
Webmaster  Alan B. Chamberlin